AirNav   Air Wisconsin pilot careers
 
 335 users online  

9I3 West Liberty Airport
West Liberty, Kentucky, USA

GOING TO WEST LIBERTY?


FAA INFORMATION EFFECTIVE 03 JANUARY 2019

Location

FAA Identifier: 9I3
Lat/Long: 37-54-51.9600N / 083-15-06.9950W
37-54.866000N / 083-15.116583W
37.9144333 / -83.2519431
(estimated)
Elevation: 934 ft. / 284.7 m (surveyed)
Variation: 04W (1985)
From city: 1 mile S of WEST LIBERTY, KY
Time zone: UTC -5 (UTC -4 during Daylight Saving Time)
Zip code: 41472

Airport Operations

Airport use: Open to the public
Activation date: 12/1964
Control tower: no
ARTCC: INDIANAPOLIS CENTER
FSS: LOUISVILLE FLIGHT SERVICE STATION
NOTAMs facility: LOU (NOTAM-D service available)
Attendance: UNATNDD
Wind indicator: yes
Segmented circle: yes

Airport Communications

CTAF: 122.9
WX ASOS at JKL (19 nm S): 118.375 (606-666-2794)

Nearby radio navigation aids

VOR radial/distance  VOR name  Freq  Var
ECBr230/21.8NEWCOMBE VORTAC110.4002W
AZQr005/31.4HAZARD VOR/DME111.2004W

 
NDB name  Hdg/Dist  Freq  Var  ID
MOUNT STERLING110/35.621006WIOB .. --- -...
SECO079/38.139303WXYC -..- -.-- -.-.

Airport Services

Parking: tiedowns
Airframe service: NONE
Powerplant service: NONE
Bottled oxygen: NONE
Bulk oxygen: NONE

Runway Information

Runway 7/25

Dimensions: 2400 x 60 ft. / 732 x 18 m
Surface: asphalt, in good condition
Weight bearing capacity: 
Single wheel: 9.0
Gradient: E
RUNWAY 7  RUNWAY 25
Latitude: 37-54.800667N37-54.931333N
Longitude: 083-15.352167W083-14.881000W
Elevation: 883.0 ft.926.0 ft.
Gradient: 1.8% UP1.5%
Traffic pattern: leftleft
Runway heading: 075 magnetic, 071 true255 magnetic, 251 true
Markings: basic, in good conditionbasic, in good condition
Obstructions: 49 ft. trees, 479 ft. from runway, 132 ft. right of centerline, 5:1 slope to clear25 ft. trees, 290 ft. from runway, 132 ft. left of centerline, 3:1 slope to clear

Airport Ownership and Management from official FAA records

Ownership: Publicly-owned
Owner: WEST LIBERTY & MORGAN COUNTY
MORGAN CO OFFICE BLDG
WEST LIBERTY, KY 41472
Phone 606-743-3898
COUNTY JUDGE/EXECUTIVE
Manager: JERRY MAYS
787 CENTERVILLE ROAD
WEST LIBERTY, KY 41472
Phone 606-743-4703
JERRY MAYS-BOARD CHAIRMAN

Airport Operational Statistics

Aircraft based on the field: 14
Single engine airplanes: 14
    
Aircraft operations: avg 83/week *
51% local general aviation
46% transient general aviation
2% air taxi
<1% military
* for 12-month period ending 12 August 2015

Additional Remarks

TREES & TERRAIN BOTH SIDES OF RWY VIOLATE 7:1 TRANSITIONAL SURFACE.
CALL 606-359-2557 FOR ARPT CONDS.
TKOF AND LNDG TURBULENCE FROM SRNDG WOODED HILLS.
RY HAS 2 PERCENT GRADE SLOPING DOWNHILL 'E' TO 'W'.
DEER ON & INVOF ARPT.

Instrument Procedures

There are no published instrument procedures at 9I3.

Some nearby airports with instrument procedures:

KJKL - Julian Carroll Airport (19 nm S)
KSYM - Morehead-Rowan County Clyde A Thomas Regional Airport (24 nm NW)
KSJS - Big Sandy Regional Airport (31 nm E)
KCPF - Wendell H Ford Airport (32 nm S)
KIOB - Mount Sterling-Montgomery County Airport (35 nm W)
 
Loc | Ops | Rwys | IFR | FBO | Links
Com | Nav | Svcs | Stats | Notes
Area around 9I3 (West Liberty Airport)
 
Road maps at: MapQuest Bing Google
 
Aerial photo
WARNING: Photo may not be current or correct
Aerial photo of 9I3 (West Liberty Airport)
Photo by Bobby Hester - Hopkinsville, KY
Photo taken 16-Jun-2012
looking southwest.

Do you have a better or more recent aerial photo of West Liberty Airport that you would like to share? If so, please send us your photo.

 
Sectional chart

 
Airport distance calculator
Flying to West Liberty Airport? Find the distance to fly.

From to 9I3

Sunrise and sunset
Times for 23-Jan-2019
 Local
(UTC-5)
 Zulu
(UTC)
Morning civil twilight07:1712:17
Sunrise07:4512:45
Sunset17:4522:45
Evening civil twilight18:1323:13

Current date and time
Zulu (UTC)  23-Jan-2019 08:19:19
Local (UTC-5)  23-Jan-2019 03:19:19
 
METAR
KJKL 
19nm S 
230753Z AUTO VRB05KT 10SM OVC080 08/01 A3011 RMK AO2 SLP195 T00830011
KSYM 
24nm NW 
230755Z AUTO 19009G15KT 10SM BKN080 OVC085 08/M01 A3010 RMK AO2
KSJS 
31nm E 
AWOS-3 120.175 606-298-4143
230755Z AUTO 17016G21KT 10SM OVC075 09/01 A3013 RMK AO2 T00880013
KIOB 
35nm W 
230755Z AUTO 21009G15KT 10SM BKN080 08/02 A3008 RMK AO2
TAF
KJKL 
19nm S 
230524Z 2306/2406 19009KT P6SM BKN100 WS020/20050KT FM231700 21010G20KT 6SM -RA OVC040 WS020/20045KT FM232300 24007KT 6SM RA OVC015 FM240200 27006KT 2SM RA OVC008
NOTAMs
Click for the latest NOTAMs
NOTAMs are issued by the DoD/FAA and will open in a separate window not controlled by AirNav.

 

 
 

Would you like to see your business listed on this page?

 If your business provides an interesting product or service to pilots, flight crews, aircraft, or users of the West Liberty Airport, you should consider listing it here.  To start the listing process, click on the button below
 
Add a business
 

Other Pages about West Liberty Airport

Update a link
 
Copyright © AirNav, LLC. All rights reserved. Privacy Policy  Contact